カタログに戻る

OPS 4682 DEB

運用中PO
NORAD 38413·DEBRIS·🇺🇸 United States

打ち上げ Apr 3, 1965 から Vandenberg Space Force Base

Loading…

次のパス (今後24時間)

TLE

最新Source: Space-Track

元期: Sep 14, 2026, 18:09 UTC

1 38413U 65027DS  26257.75653306  .00000396  00000-0  12872-2 0  9996
2 38413  90.2477  12.2616 0029578  56.3722 304.0216 13.00051862136916

AllMySatでOPS 4682 DEBをリアルタイム追跡

Download on the App Store